Location: Unspecified
(43.3830°N, 0.0000°E)
Time: 09:29:34
(UTC+00:00)

N. Korean satellite - Pass Details

Date: 04 December 2020
Orbit: 453 x 502 km, 97.2° (Epoch: 16 January)

Event Time Altitude Azimuth Distance (km) Brightness Sun altitude
Rises 05:56:43 0° 5° (N) 2,574 10.1 -14.0°
Reaches altitude 10° 05:58:50 10° 358° (N) 1,695 9.1 -13.6°
Maximum altitude 06:02:18 43° 287° (WNW) 710 6.9 -13.0°
Drops below altitude 10° 06:05:47 10° 215° (SW) 1,700 9.2 -12.4°
Sets 06:07:56 0° 208° (SSW) 2,582 10.2 -12.1°
